Regional Weather Roundup
Issued by NWS Newport/Morehead, NC

Current Version | Previous Version | Graphics & Text | Print | Product List | Glossary Off
Versions: 1 2 3 4 5 6 7 8 9 10 11 12 13 14 15 16 17 18 19 20 21 22 23 24 25 26 27 28 29 30 31 32 33 34 35 36 37 38 39 40 41 42 43 44 45 46 47 48 49 50

000
ASUS42 KMHX 250125
RWRMHX
WEATHER ROUNDUP FOR EASTERN NORTH CAROLINA
NATIONAL WEATHER SERVICE NEWPORT/MOREHEAD CITY NC
900 PM EDT SAT JUN 24 2017

NOTE: "FAIR" INDICATES FEW OR NO CLOUDS BELOW 12,000 FEET
WITH NO SIGNIFICANT WEATHER AND/OR OBSTRUCTIONS TO VISIBILITY

NCZ015>017-031-032-045>047-102-103-250200-
NORTH COAST

CITY           SKY/WX    TMP DP  RH WIND       PRES   REMARKS
EDENTON        HVY RAIN  73  68  84 CALM      29.99R VSB 1/2
ELIZABETH CITY LGT RAIN  79  77  94 S7        29.94R
KITTY HAWK     RAIN      78  76  95 SW5       29.96R
MANTEO         HVY RAIN  78  76  94 SW13      29.97R

$$

NCZ045>047-081-094-103-104-250200-
CENTRAL COAST

CITY           SKY/WX    TMP DP  RH WIND       PRES   REMARKS
FRISCO         CLOUDY    80  75  84 SW14G21   29.98R

$$

NCZ095-097-098-100-101-250200-
SOUTHERN COAST

CITY           SKY/WX    TMP DP  RH WIND       PRES   REMARKS
BEAUFORT       CLOUDY    82  78  88 SW18G29   30.00R
CEDAR ISLAND   NOT AVBL
JACKSONVILLE   LGT RAIN  74  73  97 SW7       29.99S
PINEY ISLAND   CLOUDY   N/A N/A N/A W5        29.98R
WILMINGTON     CLOUDY    80  72  76 N5        29.99R


$$

NCZ011>013-027>030-043-044-078>080-089-090>093-098-250200-
COASTAL PLAIN

CITY           SKY/WX    TMP DP  RH WIND       PRES   REMARKS
AHOSKIE        NOT AVBL
CLINTON        CLOUDY    75  75 100 N5        29.99F
ELIZABETHTOWN  NOT AVBL
GOLDSBORO      CLOUDY    75  75 100 NW5       29.97R
GREENVILLE     RAIN      75  75 100 SW7       30.02R
HAVELOCK       TSTM      74  71  91 SW9       30.00R VSB 1/2
KENANSVILLE    LGT RAIN  75  73  94 CALM      29.99R
KINSTON        HVY RAIN  75  75 100 N3        29.99R
NEW BERN       RAIN      74  74 100 SW6       30.00S FOG
RICHLANDS      RAIN      74  73  97 SW8       30.00S FOG
ROCKY MOUNT    LGT RAIN  70  70 100 E7        29.97S
WASHINGTON     HVY RAIN N/A N/A N/A SW9       30.00R
WHITEVILLE     CLOUDY    78  73  84 CALM      29.99R

$$

AMZ130-135-150-152-154-156-158-170-250-252-270-ANZ085-086-088-633-658-670-250200-
MARINE OBSERVATIONS

STATION/POSITION TIME  TEMP    WIND        PRES    WAVE   SWELL
                       AIR SEA DIR/SP/G            HT/PER HT/PER
                 (UTC) (F)     (DEG/KT/KT) (MB)    (FT/S) (FT/S)
CHESAPEAKE LIGHT NOT AVBL
64 E VA BEACH    0050   75 74  190/ 10/ 10 1014.3    5/ 7   3/ 7
DUCK             0100   79 62  190/ 11/ 14 1013.8
2 E DUCK         NOT AVBL
OREGON INLET     0100      84  230/ 17/ 21 1014.7
13E OREGON INLT  0048      74                N/A     4/ 7   3/ 7
HATTERAS CG      0100   78 79  220/ 12/ 16 1015.0
DIAMOND BUOY     0050   81 80  220/ 19/ 23 1015.0    6/ 7   2/12
CAPE LOOKOUT     0100   80     210/ 14/ 17 1015.3
BEAUFORT LAB     0100   81 78  250/  6/ 16 1015.5
30 SE NEW RVR IN 0108   80 80  220/ 17/ 23 1015.7
30 SE NEW RVR IN 0043      80                N/A     6/ 6
27 SE WRIGHTSVLE 0108   79 80  210/ 17/ 23 1014.8
5 SE WRIGHTSVLE  0108   81 80  220/  8/ 14 1015.2
225 S CAPE HAT   0050   81 81  210/ 14/ 16 1019.5    4/ 6   2/ 8
41 SE CHARLESTON 0110   81 81  190/ 17/ 21 1015.5

$$



USA.gov is the U.S. government's official web portal to all federal, state and local government web resources and services.